Regional Weather Roundup
Issued by NWS

Home | Current Version | Previous Version | Graphics & Text | Print | Product List | Glossary On
Versions: 1 2 3 4 5 6 7 8 9 10 11 12 13 14 15 16 17 18 19 20 21 22 23 24 25 26 27 28 29 30 31 32 33 34 35 36 37 38 39 40 41 42 43 44 45 46 47 48 49 50
000
ASUS43 KDTX 262101
RWRMI
MICHIGAN HOURLY REGIONAL WEATHER ROUNDUP
NATIONAL WEATHER SERVICE DETROIT/PONTIAC MI
500 PM EDT THU MAR 26 2015

NOTE: "FAIR" INDICATES FEW OR NO CLOUDS BELOW 12,000 FEET WITH NO
SIGNIFICANT WEATHER AND/OR OBSTRUCTION TO VISIBILITY.

MIZ047>049-052>055-059>063-066>070-074>076-081>083-262200-
SOUTHEAST LOWER MICHIGAN

CITY           SKY/WX    TMP DP  RH WIND       PRES   REMARKS
ADRIAN         PTSUNNY   43  25  49 NW13G20   29.86R
ALMA           CLOUDY    38  23  55 W9        29.86R WCI  32
ANN ARBOR      CLOUDY    43  24  47 NW12      29.84R
BAD AXE        CLOUDY    38  24  55 W13       29.81S WCI  31
CARO           CLOUDY    39  27  62 W9        29.82S WCI  33
DETROIT CITY   CLOUDY    45  25  45 NW8       29.83R
DETROIT        CLOUDY    45  25  45 W12       29.84R
FLINT          CLOUDY    41  25  53 W13       29.84R
GROSSE ILE     CLOUDY    45  27  49 W10       29.83R
HILLSDALE      CLOUDY    42  25  49 W14G20    29.86R
HOWELL         CLOUDY    39  24  55 NW15      29.84R WCI  30

CITY           SKY/WX    TMP DP  RH WIND       PRES   REMARKS
JACKSON        CLOUDY    40  24  53 NW15      29.86R WCI  32
LAMBERTVILLE   CLOUDY    45  30  57 W8        29.86R
LANSING        CLOUDY    39  22  50 NW12      29.86R WCI  32
LAPEER         CLOUDY    39  24  55 NW9G17    29.83R WCI  33
MASON          CLOUDY    38  23  55 NW9G17    29.86R WCI  32
MONROE         CLOUDY    43  28  56 W8        29.84R
MT. CLEMENS    CLOUDY    42  26  51 NW13      29.80R
PONTIAC        CLOUDY    40  23  50 NW14      29.82R WCI  32
PORT HOPE        N/A     38  24  57 VRB6      29.79R WCI  33
PORT HURON     CLOUDY    39  28  65 NW12      29.83R WCI  32
TRI CITIES     CLOUDY    40  25  55 W10       29.84R WCI  33
TROY           CLOUDY    43  26  51 NW10G16   29.85R
SAGINAW HB     CLOUDY    37  27  65 NW16      29.83R WCI  28
$$
MIZ043>046-050>051-056>058-064>065-071>073-077>080-262200-
SOUTHWEST LOWER MICHIGAN

CITY           SKY/WX    TMP DP  RH WIND       PRES   REMARKS
BATTLE CREEK   CLOUDY    38  23  55 NW15G23   29.90R WCI  29
BENTON HARBOR  CLOUDY    37  25  61 NW10      29.95R WCI  30
BIG RAPIDS     CLOUDY    34  25  69 NW12G20   29.87R WCI  25
COLDWATER      CLOUDY    39  22  50 NW15      29.89R WCI  31
FREMONT        CLOUDY    34  24  66 N10       29.90R WCI  26
HOLLAND        CLOUDY    37  25  61 NW13G23   29.93R WCI  29
GRAND RAPIDS   FLURRIES  36  25  64 NW16G23   29.89R WCI  26
IONIA          CLOUDY    38  24  55 NW10      29.87R WCI  32
KALAMAZOO      CLOUDY    38  22  52 NW17G24   29.91R WCI  28
LUDINGTON      FLURRIES  31  23  73 N12       29.95R WCI  21
MARSHALL       CLOUDY    38  23  54 W14G21    29.88R WCI  30
MOUNT PLEASANT CLOUDY    37  26  63 W12G17    29.85R WCI  29
MUSKEGON       CLOUDY    35  24  64 NW12G20   29.93R WCI  27
SOUTH HAVEN    CLOUDY    38  26  61 NW8       29.94R WCI  32
$$
MIZ016>042-262200-
NORTHERN LOWER MICHIGAN

CITY           SKY/WX    TMP DP  RH WIND       PRES   REMARKS
ALPENA         CLOUDY    37  27  67 W16G23    29.80R WCI  28
BEAVER ISLAND  CLOUDY    24  15  69 NW16G22   29.93R WCI  10
BELLAIRE       LGT SNOW  26  20  80 NW7G20    29.93R WCI  18
CADILLAC       CLOUDY    28  23  81 NW16      29.86R WCI  16
CHARLEVOIX     CLOUDY    26  19  76 NW20G25   29.94R WCI  12
FRANKFORT      FLURRIES  30  19  63 N10G18    29.95R WCI  21
GAYLORD        CLOUDY    25  21  85 W13       29.83R WCI  14
GRAYLING       FLURRIES  27  21  78 W16       29.86R WCI  15
HARBOR SPRINGS MOSUNNY   28  19  68 W14G23    29.88R WCI  17
HOUGHTON LAKE  FLURRIES  28  22  78 NW16      29.85R WCI  16
MANISTEE       CLOUDY    30  19  64 N13G21    29.95R WCI  20
OSCODA         CLOUDY    39  26  58 W12G20    29.79S WCI  32
PELLSTON       CLOUDY    28  20  71 NW21G28   29.88R WCI  15
ROGERS CITY    CLOUDY    33  30  86 NW17G24   29.82R WCI  22
TRAVERSE CITY  LGT SNOW  27  20  75 NW13      29.93R WCI  16
$$
MIZ007>008-015-262200-
EASTERN UPPER MICHIGAN

CITY           SKY/WX    TMP DP  RH WIND       PRES   REMARKS
KINROSS        CLOUDY    23  19  86 NW24G30   29.83R WCI   7
MACKINAC ISLAN CLOUDY    29  20  69 NW15G23   29.85R WCI  18
NEWBERRY       LGT SNOW  19  14  81 NW13G21   29.91R WCI   7
S. S. MARIE    LGT SNOW  23  18  81 NW16G25   29.84S WCI  10
$$
MIZ004>006-011>014-085-262200-
CENTRAL UPPER MICHIGAN

CITY           SKY/WX    TMP DP  RH WIND       PRES   REMARKS
MANISTIQUE     FLURRIES  21  13  71 NW22G31   29.94R WCI   5
ESCANABA       CLOUDY    25  14  63 N9G21     29.98R WCI  15
MENOMINEE      CLOUDY    30  12  47 N13       29.97R WCI  20
SAWYER-GWINN   LGT SNOW  19  14  79 N20       29.97R WCI   4
$$
MIZ001>003-009>011-084-262200-
WESTERN UPPER MICHIGAN

CITY           SKY/WX    TMP DP  RH WIND       PRES   REMARKS
IRON MOUNTAIN  CLOUDY    23  11  60 N20G26    29.97R WCI   8
HOUGHTON       CLOUDY    18   8  65 NW13G21   30.04S WCI   5
COPPER HARBOR    N/A     19  10  68 N22       30.06R WCI   2
IRONWOOD       CLOUDY    19   9  63 NW15      30.06R WCI   5
$$

ABBREVIATIONS USED IN REMARKS
   TC - TEMPERATURE IN CELSIUS
  WCI - WIND CHILL INDEX
   HX - HEAT INDEX
  VSB - VISIBILITY



USA.gov is the U.S. government's official web portal to all federal, state and local government web resources and services.